| time (UTC) | temp C | wind direction | speed KPH | gust KPH | rain 1hr cm | rain 24hr cm | rain mn cm | humidity % | barometer mb |
| 20260508002250 | 7 | 318 | 1.6 | 6.4 | 0.00 | 0.00 | 0.00 | 90 | 1014.0 |
| 20260508000749 | 7 | 300 | 1.6 | 4.8 | 0.00 | 0.00 | 0.00 | 88 | 1014.0 |
| 20260507235248 | 7 | 336 | 3.2 | 4.8 | 0.00 | 0.00 | 0.00 | 86 | 1014.0 |
| 20260507233748 | 7 | 348 | 3.2 | 6.4 | 0.00 | 0.00 | 0.00 | 86 | 1014.1 |
| 20260507232247 | 7 | 288 | 1.6 | 4.8 | 0.00 | 0.00 | 0.00 | 86 | 1014.1 |
| 20260507230746 | 7 | 294 | 1.6 | 4.8 | 0.00 | 0.00 | 0.00 | 84 | 1014.2 |
| 20260507225245 | 7 | 348 | 1.6 | 4.8 | 0.00 | 0.00 | 0.00 | 83 | 1014.1 |
| 20260507223744 | 7 | 354 | 1.6 | 4.8 | 0.00 | 0.00 | 0.00 | 84 | 1014.1 |
| 20260507222243 | 7 | 348 | 3.2 | 6.4 | 0.00 | 0.00 | 0.00 | 86 | 1013.9 |
| 20260507220742 | 7 | 348 | 4.8 | 8.0 | 0.00 | 0.00 | 0.00 | 86 | 1013.9 |
| 20260507215241 | 7 | 24 | 4.8 | 9.7 | 0.00 | 0.00 | 0.00 | 87 | 1013.7 |
| 20260507213740 | 7 | 356 | 4.8 | 8.0 | 0.00 | 0.00 | 0.00 | 88 | 1013.6 |
| 20260507212239 | 7 | 348 | 4.8 | 8.0 | 0.00 | 0.00 | 0.00 | 88 | 1013.5 |
| 20260507210738 | 7 | 16 | 4.8 | 8.0 | 0.00 | 0.00 | 0.00 | 87 | 1013.4 |
| 20260507205238 | 8 | 318 | 4.8 | 9.7 | 0.00 | 0.00 | 0.00 | 87 | 1013.3 |
| 20260507203736 | 7 | 0 | 1.6 | 6.4 | 0.00 | 0.00 | 0.00 | 87 | 1013.2 |
| 20260507202235 | 7 | 288 | 3.2 | 4.8 | 0.00 | 0.00 | 0.00 | 89 | 1013.1 |
| 20260507200735 | 7 | 294 | 3.2 | 6.4 | 0.00 | 0.00 | 0.00 | 89 | 1013.0 |
| 20260507195234 | 7 | 264 | 1.6 | 3.2 | 0.00 | 0.00 | 0.00 | 89 | 1013.0 |
| 20260507193733 | 7 | 300 | 0.0 | 3.2 | 0.00 | 0.00 | 0.00 | 88 | 1012.8 |
| 20260507192232 | 7 | 282 | 1.6 | 4.8 | 0.00 | 0.00 | 0.00 | 87 | 1012.7 |
| 20260507190731 | 7 | 330 | 0.0 | 4.8 | 0.00 | 0.00 | 0.00 | 87 | 1012.5 |
| 20260507185230 | 8 | 54 | 0.0 | 3.2 | 0.00 | 0.00 | 0.00 | 87 | 1012.4 |
| 20260507183729 | 8 | 343 | 3.2 | 6.4 | 0.00 | 0.00 | 0.00 | 87 | 1012.1 |
| 20260507182228 | 8 | 331 | 4.8 | 9.7 | 0.00 | 0.00 | 0.00 | 85 | 1011.7 |
| 20260507180727 | 8 | 354 | 4.8 | 11.3 | 0.00 | 0.00 | 0.00 | 85 | 1011.7 |
| 20260507175226 | 8 | 0 | 4.8 | 11.3 | 0.00 | 0.00 | 0.00 | 86 | 1011.7 |
| 20260507173725 | 8 | 0 | 6.4 | 9.7 | 0.00 | 0.00 | 0.00 | 86 | 1011.6 |
| 20260507172224 | 8 | 6 | 8.0 | 12.9 | 0.00 | 0.00 | 0.00 | 85 | 1011.6 |
| 20260507170724 | 8 | 330 | 8.0 | 16.1 | 0.00 | 0.00 | 0.00 | 86 | 1011.5 |
| 20260507165222 | 8 | 348 | 6.4 | 14.5 | 0.00 | 0.00 | 0.00 | 87 | 1011.4 |
| 20260507163721 | 8 | 330 | 8.0 | 16.1 | 0.03 | 0.00 | 0.00 | 87 | 1011.3 |
| 20260507162221 | 8 | 324 | 11.3 | 17.7 | 0.03 | 0.00 | 0.00 | 88 | 1011.3 |
| 20260507160720 | 8 | 312 | 8.0 | 12.9 | 0.03 | 0.00 | 0.00 | 90 | 1011.3 |
| 20260507155219 | 8 | 338 | 6.4 | 11.3 | 0.00 | 0.00 | 0.00 | 87 | 1011.3 |
| 20260507153718 | 8 | 330 | 6.4 | 11.3 | 0.00 | 0.00 | 0.00 | 84 | 1011.3 |
| 20260507152216 | 9 | 22 | 6.4 | 9.7 | 0.00 | 0.00 | 0.00 | 78 | 1011.3 |
| 20260507150716 | 9 | 3 | 6.4 | 11.3 | 0.00 | 0.00 | 0.00 | 77 | 1011.2 |
| 20260507145214 | 9 | 324 | 8.0 | 12.9 | 0.00 | 0.00 | 0.00 | 77 | 1011.0 |
| 20260507143713 | 9 | 5 | 8.0 | 12.9 | 0.00 | 0.00 | 0.00 | 77 | 1010.9 |
| 20260507142212 | 9 | 24 | 8.0 | 12.9 | 0.00 | 0.00 | 0.00 | 77 | 1010.9 |
| 20260507140710 | 9 | 342 | 8.0 | 12.9 | 0.00 | 0.00 | 0.00 | 78 | 1010.9 |
| 20260507135209 | 8 | 30 | 8.0 | 16.1 | 0.00 | 0.00 | 0.00 | 79 | 1010.9 |
| 20260507133708 | 8 | 348 | 8.0 | 16.1 | 0.00 | 0.00 | 0.00 | 80 | 1010.8 |
| 20260507132207 | 8 | 357 | 8.0 | 14.5 | 0.00 | 0.00 | 0.00 | 80 | 1010.8 |
| 20260507130706 | 8 | 16 | 8.0 | 14.5 | 0.00 | 0.00 | 0.00 | 82 | 1010.8 |
| 20260507125205 | 8 | 324 | 4.8 | 9.7 | 0.00 | 0.00 | 0.00 | 82 | 1010.6 |
| 20260507123704 | 8 | 24 | 9.7 | 16.1 | 0.00 | 0.00 | 0.00 | 85 | 1010.5 |
| 20260507122203 | 8 | 318 | 8.0 | 14.5 | 0.03 | 0.00 | 0.00 | 85 | 1010.3 |
| 20260507120702 | 7 | 24 | 9.7 | 16.1 | 0.03 | 0.00 | 0.00 | 84 | 1010.2 |
| 20260507115201 | 8 | 336 | 9.7 | 16.1 | 0.03 | 0.00 | 0.00 | 87 | 1010.1 |
| 20260507113700 | 8 | 0 | 9.7 | 16.1 | 0.03 | 0.00 | 0.00 | 84 | 1010.0 |
| 20260507112159 | 8 | 18 | 9.7 | 16.1 | 0.03 | 0.00 | 0.00 | 81 | 1009.9 |
| 20260507110658 | 8 | 342 | 9.7 | 16.1 | 0.03 | 0.00 | 0.00 | 83 | 1009.9 |
| 20260507105157 | 8 | 18 | 8.0 | 16.1 | 0.00 | 0.00 | 0.00 | 81 | 1009.7 |
| 20260507103656 | 8 | 330 | 8.0 | 14.5 | 0.00 | 0.00 | 0.00 | 82 | 1009.7 |
| 20260507102155 | 7 | 60 | 8.0 | 12.9 | 0.00 | 0.00 | 0.00 | 83 | 1009.6 |
| 20260507100654 | 7 | 48 | 8.0 | 14.5 | 0.00 | 0.00 | 0.00 | 85 | 1009.4 |
| 20260507095153 | 7 | 336 | 9.7 | 14.5 | 0.00 | 0.00 | 0.00 | 84 | 1009.3 |
| 20260507093652 | 7 | 24 | 9.7 | 16.1 | 0.00 | 0.00 | 0.00 | 83 | 1009.2 |
| 20260507092151 | 7 | 6 | 9.7 | 19.3 | 0.00 | 0.00 | 0.00 | 83 | 1009.0 |
| 20260507090651 | 7 | 36 | 9.7 | 17.7 | 0.00 | 0.00 | 0.00 | 81 | 1009.0 |
| 20260507085150 | 7 | 6 | 9.7 | 17.7 | 0.00 | 0.00 | 0.00 | 83 | 1008.7 |
| 20260507083649 | 7 | 24 | 8.0 | 16.1 | 0.00 | 0.00 | 0.00 | 82 | 1008.6 |
| 20260507082148 | 7 | 36 | 9.7 | 16.1 | 0.00 | 0.00 | 0.00 | 84 | 1008.5 |
| 20260507080647 | 7 | 24 | 11.3 | 17.7 | 0.00 | 0.00 | 0.00 | 85 | 1008.3 |
| 20260507075146 | 7 | 3 | 11.3 | 17.7 | 0.00 | 0.00 | 0.00 | 85 | 1007.9 |
| 20260507073644 | 7 | 0 | 11.3 | 17.7 | 0.00 | 0.00 | 0.00 | 86 | 1007.7 |
| 20260507072144 | 7 | 342 | 9.7 | 17.7 | 0.00 | 0.00 | 0.00 | 80 | 1007.7 |
| 20260507070642 | 7 | 348 | 11.3 | 20.9 | 0.00 | 0.00 | 0.00 | 82 | 1007.6 |
| 20260507065141 | 7 | 24 | 9.7 | 17.7 | 0.00 | 0.00 | 0.00 | 82 | 1007.6 |
| 20260507063641 | 7 | 12 | 11.3 | 17.7 | 0.00 | 0.00 | 0.00 | 83 | 1007.5 |
| 20260507062139 | 7 | 36 | 11.3 | 19.3 | 0.00 | 0.00 | 0.00 | 83 | 1007.4 |
| 20260507060638 | 7 | 348 | 9.7 | 17.7 | 0.00 | 0.00 | 0.00 | 82 | 1007.3 |
| 20260507055138 | 7 | 0 | 8.0 | 14.5 | 0.00 | 0.00 | 0.00 | 85 | 1007.1 |
| 20260507053637 | 7 | 12 | 9.7 | 16.1 | 0.00 | 0.00 | 0.00 | 85 | 1006.9 |
| 20260507052135 | 7 | 12 | 8.0 | 14.5 | 0.00 | 0.00 | 0.00 | 86 | 1006.8 |
| 20260507050634 | 6 | 17 | 8.0 | 12.9 | 0.00 | 0.00 | 0.00 | 87 | 1006.7 |
| 20260507045133 | 6 | 352 | 6.4 | 12.9 | 0.00 | 0.00 | 0.00 | 88 | 1006.6 |
| 20260507043633 | 6 | 36 | 6.4 | 12.9 | 0.00 | 0.00 | 0.00 | 88 | 1006.5 |
| 20260507042132 | 6 | 352 | 6.4 | 12.9 | 0.00 | 0.00 | 0.00 | 89 | 1006.2 |
| 20260507040631 | 6 | 36 | 8.0 | 16.1 | 0.00 | 0.00 | 0.00 | 89 | 1006.0 |
| 20260507035130 | 6 | 17 | 9.7 | 16.1 | 0.00 | 0.00 | 0.00 | 90 | 1005.8 |
| 20260507033629 | 6 | 24 | 9.7 | 16.1 | 0.00 | 0.00 | 0.00 | 91 | 1005.9 |
| 20260507032128 | 6 | 5 | 9.7 | 16.1 | 0.00 | 0.00 | 0.00 | 92 | 1005.7 |
| 20260507030626 | 6 | 12 | 9.7 | 16.1 | 0.00 | 0.00 | 0.00 | 92 | 1005.6 |
| 20260507025126 | 6 | 0 | 11.3 | 17.7 | 0.00 | 0.00 | 0.00 | 92 | 1005.5 |
| 20260507023625 | 6 | 16 | 9.7 | 16.1 | 0.00 | 0.00 | 0.00 | 92 | 1005.3 |
| 20260507022124 | 6 | 0 | 9.7 | 17.7 | 0.00 | 0.00 | 0.00 | 91 | 1005.3 |
| 20260507020622 | 6 | 4 | 9.7 | 16.1 | 0.00 | 0.00 | 0.00 | 91 | 1005.2 |
| 20260507015121 | 6 | 0 | 9.7 | 17.7 | 0.00 | 0.00 | 0.00 | 92 | 1005.1 |
| 20260507013620 | 6 | 348 | 9.7 | 16.1 | 0.00 | 0.00 | 0.00 | 92 | 1005.0 |
| 20260507012119 | 6 | 338 | 8.0 | 14.5 | 0.00 | 0.00 | 0.00 | 92 | 1004.9 |
| 20260507010619 | 6 | 12 | 9.7 | 16.1 | 0.00 | 0.00 | 0.00 | 91 | 1005.0 |
| 20260507005117 | 6 | 342 | 6.4 | 12.9 | 0.00 | 0.00 | 0.00 | 91 | 1005.0 |
| 20260507003617 | 6 | 22 | 6.4 | 12.9 | 0.00 | 0.00 | 0.00 | 92 | 1005.0 |